SCP
0 0 0 0 0 0 0 0 0 0 0 0 0 1 1 2 2 2 1 0 0 0 0 0 0 0 0 0 0 0 0 0 0 0 0 0 0 0 0 0 0 0 0
0 0 0 0 0 0 0 0 0 0 0 0 0 1 2 1 1 1 0 0 0 0 0 0 0 0 0 0 0 0 0 0 0 0 0 0 0 0 0 0 0 0 0
0 0 0 0 0 0 0 0 0 0 0 0 0 1 1 0 0 0 0 0 0 0 0 0 0 0 0 0 0 0 0 0 0 0 0 0 0 0 0 0 0 0 0
0 0 0 0 0 0 0 0 0 0 0 0 1 1 1 0 0 0 0 0 0 0 0 0 0 0 0 0 0 0 0 0 0 0 0 0 0 0 0 0 0 0 0
0 0 0 0 0 0 0 0 0 0 0 0 0 0 0 0 0 0 0 0 0 0 0 0 0 0 0 0 0 0 0 0 0 0 0 0 0 0 0 0 0 0 0
0 0 0 0 0 0 0 0 0 0 0 0 0 0 0 0 0 0 0 0 0 0 0 0 0 0 0 0 0 0 0 0 0 0 0 0 0 0 0 0 0 0 0
0 0 0 0 0 -0 -0 0 0 0 0 0 0 0 0 0 0 0 0 0 0 0 0 0 0 0 0 0 0 0 0 0 0 0 0 0 0 0 0 0 0 0 0
0 0 0 0 -0 -0 -0 0 0 0 0 0 0 0 0 0 -0 0 0 0 0 0 0 0 0 0 0 0 0 0 0 0 0 0 0 0 0 0 0 0 0 0 0
0 0 -0 -0 0 0 -0 0 0 0 0 0 0 0 0 0 0 -0 0 0 0 0 0 0 0 0 0 0 0 0 0 0 0 0 0 0 0 0 0 0 0 0 0
0 -0 -0 -0 0 0 0 0 0 0 0 0 0 0 0 0 0 0 0 0 0 0 0 0 0 0 -0 -0 -0 0 0 0 0 0 0 0 0 0 0 0 0 0 0
0 -0 -0 -0 0 0 0 0 0 0 0 0 0 0 0 0 0 0 0 0 0 0 0 0 0 -0 -0 -0 -0 -0 0 0 0 0 0 0 0 0 0 0 0 0 0
-0 -0 0 -0 0 0 0 0 0 0 0 0 0 0 0 0 0 0 -0 -0 0 0 0 0 -0 -0 -0 -0 -0 0 0 -0 0 0 0 0 0 0 0 0 0 0 0
0 0 -0 -0 0 0 0 0 0 0 0 0 0 0 0 0 0 -0 -0 -0 -0 -0 0 -0 -0 -0 -0 -0 -0 -0 -0 -0 0 0 0 0 0 0 0 0 0 0 0
-0 -0 0 0 0 0 0 0 0 0 0 0 0 0 0 0 0 0 0 0 0 -0 -0 -0 -0 -0 -0 -0 -0 -0 -0 0 0 0 0 0 0 0 0 0 0 0 0
-0 0 0 0 -0 0 0 0 0 0 0 0 0 0 0 0 0 0 0 0 0 -0 -0 -0 -0 -0 -0 0 -0 -0 0 0 0 0 0 0 0 0 0 0 0 0 0
0 0 0 0 0 0 0 0 0 0 0 0 0 0 0 0 0 0 -0 -0 0 -0 -0 -0 -0 -0 0 0 -0 0 0 0 0 0 0 0 0 0 0 0 0 0 0
0 0 0 0 0 0 0 0 0 0 0 0 0 0 0 0 0 -0 -0 0 0 0 -0 -0 -0 -0 0 -0 0 0 0 0 0 0 0 0 0 0 0 0 0 0 0
0 0 0 0 0 0 0 0 0 0 0 0 0 0 0 0 0 0 -0 0 -0 -0 -0 -0 -0 0 0 -0 -0 -0 -0 -0 0 0 0 0 0 0 0 0 0 0 0
0 0 0 0 0 0 0 0 0 0 0 0 0 0 0 -0 0 0 0 -0 -0 -0 0 0 0 0 -0 -0 -0 -0 -0 0 0 0 0 0 0 0 0 0 0 0 0
0 0 0 0 0 0 0 0 0 0 0 0 -0 -0 -0 -0 0 0 -0 -0 -0 0 0 0 0 0 -0 -0 -0 -0 -0 0 0 0 0 0 0 0 0 0 0 0 0
0 0 0 -0 0 0 0 0 0 0 0 -0 -0 -0 -0 -0 -0 -0 -0 -0 -0 0 0 0 0 -0 -0 -0 -0 -0 0 0 0 0 0 0 0 0 0 0 0 0 0
0 0 0 -0 -0 0 -0 -0 -0 0 0 0 -0 -0 -0 0 0 0 0 0 0 -0 0 0 -0 -0 -0 -0 -0 0 0 0 0 0 0 0 0 0 0 0 0 0 0
0 0 0 -0 -0 -0 -0 0 -0 -0 -0 -0 -0 -0 -0 -0 0 0 -0 -0 -0 0 0 0 -0 -0 -0 -0 -0 -0 0 0 0 0 0 0 0 0 0 0 0 0 0
0 0 -0 0 0 -0 -0 -0 -0 -0 -0 0 -0 -0 -0 -0 -0 -0 0 0 0 0 0 0 -0 0 -0 -0 -0 -0 0 0 0 0 0 0 0 -0 -0 0 0 0 0
0 0 0 0 0 -0 -0 -0 -0 0 0 -0 -0 -0 0 0 0 0 0 0 0 0 0 -0 -0 -0 0 -0 0 -0 -0 0 0 0 0 -0 -0 0 -0 0 0 0 0
0 0 0 0 0 0 -0 -0 -0 -0 0 0 -0 -0 0 0 0 0 0 0 0 0 0 -0 -0 0 0 -0 -0 -0 -0 0 0 0 -0 -0 -0 0 -0 0 -0 0 0
Wind_Speed_500mb
67 61 63 67 68 65 65 62 62 58 59 61 65 70 65 69 70 65 62 57 61 66 56 57 46 36 28 30 30 25 21 15 17 23 27 27 33 38 44 47 49 45 45
71 70 72 72 69 66 64 57 55 62 59 65 62 60 63 61 63 59 58 60 66 71 63 60 51 46 36 34 24 18 13 14 15 15 17 23 29 39 44 46 42 36 37
72 74 77 75 69 65 61 56 51 55 58 52 53 61 57 62 54 52 53 60 63 61 71 56 54 46 37 25 18 12 8 9 8 9 14 22 30 37 42 39 39 37 36
74 75 76 71 69 64 56 51 49 54 46 46 50 51 58 54 51 50 51 56 63 64 63 61 51 38 30 18 12 5 4 5 9 13 14 22 27 35 34 36 39 37 36
73 74 70 62 42 41 44 42 37 33 43 45 51 55 53 50 47 46 44 58 64 64 65 60 49 37 27 18 8 1 3 8 12 12 16 16 21 30 32 34 33 39 31
71 68 58 49 43 38 16 19 32 38 46 54 59 55 50 47 45 39 51 69 76 77 65 52 40 30 22 12 2 5 7 9 12 12 14 18 23 26 31 31 30 36 33
64 55 49 37 40 17 16 29 40 49 58 61 57 51 48 49 44 48 65 82 83 74 66 50 39 30 23 10 8 2 7 10 12 14 17 21 25 32 36 29 27 30 32
54 47 39 25 17 4 8 30 47 52 54 51 47 46 51 51 45 52 68 78 72 62 55 52 42 34 25 14 9 4 7 11 13 16 21 27 34 37 39 30 31 33 28
50 42 31 15 6 20 10 32 39 48 46 48 48 54 52 54 38 59 82 78 71 69 63 61 43 36 26 18 10 7 10 13 17 21 27 31 36 37 32 29 24 30 31
43 33 22 8 8 23 34 46 54 50 54 60 64 63 66 79 79 84 80 75 75 65 63 51 36 27 22 19 14 15 14 16 18 21 24 26 30 36 28 26 28 28 34
23 14 12 10 18 29 43 50 61 63 66 70 78 82 83 80 73 68 75 73 75 70 59 48 38 29 26 24 22 21 22 24 23 21 16 20 24 27 23 25 27 31 30
15 11 18 27 32 37 45 60 71 76 87 94 97 94 90 82 77 74 72 72 67 62 55 48 41 36 34 31 30 30 28 26 20 16 15 19 23 29 33 34 26 29 22
22 27 28 34 45 51 65 77 85 96 109 108 109 104 93 84 74 67 62 58 52 57 57 54 49 44 41 38 35 31 28 26 25 22 22 21 26 34 36 34 30 31 16
35 43 42 48 59 69 81 82 94 102 111 111 102 96 87 78 71 62 55 49 55 63 59 57 51 48 44 41 38 36 36 38 34 29 23 22 28 30 30 26 30 31 32
43 50 58 71 77 84 89 91 100 100 104 102 95 88 81 75 64 60 61 62 63 62 61 56 47 41 42 38 36 39 41 39 34 29 26 29 30 28 30 34 41 41 40
53 63 68 79 84 90 97 101 94 91 88 87 83 80 74 70 64 64 64 63 62 59 55 50 47 40 37 35 36 39 42 38 34 33 35 32 34 33 40 40 40 46 46
65 77 85 93 102 102 96 84 77 66 72 75 73 70 66 64 64 65 63 61 59 56 59 51 44 41 41 36 36 36 33 37 42 41 35 34 36 36 39 41 45 49 50
75 88 102 104 100 99 92 91 90 88 85 77 64 61 59 61 61 58 56 55 58 57 55 48 42 38 36 36 35 35 37 46 48 40 38 40 41 38 39 45 46 49 50
86 97 103 96 86 86 87 88 86 83 80 74 63 55 52 53 52 50 52 58 56 52 48 45 42 40 36 34 35 38 46 55 49 47 43 44 42 37 35 44 46 48 50
76 77 79 78 71 81 82 81 78 66 60 57 55 54 50 51 55 56 58 57 51 48 46 45 44 42 41 37 39 42 49 55 57 54 50 43 38 37 33 37 46 51 50
67 64 64 64 78 77 72 66 59 58 58 55 54 52 53 58 59 58 55 53 51 49 48 45 41 45 42 42 38 47 55 57 60 58 49 42 37 36 34 38 41 48 47
60 50 57 63 65 63 59 56 57 60 62 64 62 56 56 61 59 58 56 54 56 56 52 49 49 49 51 51 52 56 60 60 61 56 49 43 36 34 35 43 48 49 48
46 48 55 58 58 59 58 56 55 55 56 54 56 56 56 58 56 56 55 54 52 51 50 51 51 51 51 54 57 59 62 63 57 52 49 43 37 37 36 40 47 47 45
43 49 55 56 53 54 54 53 52 54 55 57 56 55 56 55 54 53 50 48 47 48 49 51 54 54 54 54 55 58 58 56 53 51 49 42 38 37 41 43 48 53 49
53 53 52 53 51 52 52 50 50 52 55 55 56 56 55 53 51 49 47 46 46 46 48 50 51 54 54 53 54 52 52 53 54 52 51 42 38 40 45 45 49 53 55
48 47 48 47 46 46 47 47 48 51 56 57 55 54 53 51 50 49 47 44 43 45 45 48 50 50 52 55 53 50 51 53 53 54 53 46 42 40 46 46 51 55 55
Wind_Direction_500mb
318 309 303 297 293 291 286 286 267 261 249 246 242 240 237 235 233 232 242 244 230 235 232 219 217 220 231 241 235 238 246 258 252 280 278 284 293 301 307 313 317 318 318
321 311 306 301 300 291 286 280 267 265 254 244 238 228 227 232 225 224 235 233 232 232 229 213 208 216 220 226 226 234 253 264 286 272 281 295 303 307 315 322 326 329 328
319 315 311 305 304 294 286 277 266 260 252 243 223 216 217 220 213 222 229 231 234 228 216 207 203 192 199 205 219 228 254 301 296 288 306 308 313 318 327 331 334 336 339
320 319 315 311 303 290 286 269 264 254 230 218 211 207 211 208 215 219 222 223 214 203 198 194 184 173 178 162 215 223 287 325 322 322 321 327 328 328 339 339 343 342 345
323 326 322 321 313 290 276 263 252 209 205 206 199 198 199 205 209 215 214 219 207 189 176 167 164 166 164 140 181 120 350 336 331 332 337 342 336 344 347 345 341 344 358
331 328 329 329 323 317 261 189 193 191 197 195 187 190 197 199 205 208 207 198 183 179 168 155 147 141 120 152 116 296 319 338 337 342 353 354 350 351 346 346 346 350 354
331 335 334 332 334 329 189 187 188 188 186 181 182 188 185 188 196 205 198 177 171 164 157 148 147 131 117 151 160 35 360 346 352 2 3 4 1 354 356 348 342 338 329
340 340 339 338 341 98 163 173 170 165 169 171 168 171 173 175 198 205 187 164 147 137 126 129 122 122 128 128 99 49 2 6 12 25 24 12 4 355 5 355 348 335 335
344 348 343 341 92 143 152 160 162 163 149 151 155 158 163 162 181 169 157 144 134 122 113 111 127 136 142 127 104 62 43 33 28 33 30 15 6 359 359 355 331 343 342
348 348 343 343 150 149 156 156 154 157 150 146 144 143 145 147 154 149 143 137 128 123 116 123 133 132 120 109 94 82 68 52 39 36 26 11 9 7 356 343 346 336 338
355 352 38 95 131 145 149 150 149 143 142 139 134 132 132 130 131 130 123 120 119 121 129 130 121 114 105 98 94 86 68 52 41 37 19 12 9 5 358 353 349 345 337
2 78 99 112 125 137 141 136 137 141 134 128 125 119 114 110 111 110 111 115 124 124 124 118 110 105 101 95 84 70 58 51 45 31 18 11 7 4 10 8 357 354 344
77 96 106 119 121 123 123 123 116 121 127 122 117 114 113 112 110 108 109 111 117 119 114 108 103 98 91 81 72 66 62 55 46 33 24 15 15 14 15 12 8 356 1
101 107 112 116 119 122 119 118 120 121 119 118 118 118 119 117 114 113 114 120 121 109 105 101 99 92 85 76 72 63 56 52 46 39 30 19 19 18 14 12 14 19 16
107 112 112 115 118 119 119 117 120 118 118 117 117 116 115 114 116 123 125 119 111 110 107 101 93 86 78 69 62 57 51 48 44 34 26 26 22 28 21 24 24 22 17
109 110 113 112 112 110 109 109 107 110 114 112 112 113 112 108 112 112 110 108 108 107 100 94 86 78 69 59 53 50 46 44 40 35 34 27 27 27 23 23 19 23 18
113 115 117 116 114 116 114 113 118 117 114 113 112 106 103 106 107 107 107 109 107 101 93 85 77 71 65 58 53 50 42 38 42 40 35 32 31 30 21 20 23 23 20
116 115 115 112 113 115 117 117 117 117 116 115 109 106 105 106 107 108 108 106 98 91 85 80 73 67 63 57 50 44 41 45 42 39 34 32 32 30 25 29 27 25 19
118 116 114 116 118 120 122 122 118 115 114 113 112 104 102 104 106 107 106 98 91 87 82 79 74 67 62 55 48 44 42 44 40 37 30 32 31 27 21 28 31 28 27
116 118 123 122 123 126 124 121 118 112 110 111 111 112 113 114 110 102 96 91 87 85 82 78 73 66 58 52 47 44 43 42 39 35 32 29 26 24 20 25 29 26 25
123 123 125 126 130 128 124 117 115 116 116 115 116 119 124 115 106 100 96 91 85 84 81 77 71 66 58 52 44 45 45 41 37 34 28 29 28 23 22 28 28 27 25
133 134 130 128 127 124 119 118 118 116 115 115 117 122 119 111 106 101 96 91 86 81 79 74 69 64 59 53 49 47 44 38 37 32 29 30 26 24 25 31 35 33 31
135 138 133 130 127 124 120 118 116 115 116 117 121 121 115 109 103 97 91 87 85 82 76 72 65 58 54 52 48 46 42 39 33 28 32 31 30 38 29 32 36 33 39
142 142 136 132 129 126 123 121 120 118 118 119 120 117 110 105 101 96 94 91 86 80 74 67 62 57 53 50 47 44 41 39 36 35 37 33 38 44 44 46 45 42 52
141 142 138 134 133 128 125 121 120 119 119 119 117 115 111 106 101 97 93 87 82 78 73 67 59 56 53 51 48 45 41 40 39 40 42 40 46 55 54 50 50 49 55
145 144 141 138 134 131 128 125 124 124 123 121 118 113 108 103 98 94 90 87 83 76 71 67 62 55 53 51 47 45 43 42 42 43 42 44 50 63 62 58 58 56 59
Wind_Speed_850mb
67 61 63 67 68 65 65 62 62 58 59 61 65 70 65 69 70 65 62 57 61 66 56 57 46 36 28 30 30 25 21 15 17 23 27 27 33 38 44 47 49 45 45
71 70 72 72 69 66 64 57 55 62 59 65 62 60 63 61 63 59 58 60 66 71 63 60 51 46 36 34 24 18 13 14 15 15 17 23 29 39 44 46 42 36 37
72 74 77 75 69 65 61 56 51 55 58 52 53 61 57 62 54 52 53 60 63 61 71 56 54 46 37 25 18 12 8 9 8 9 14 22 30 37 42 39 39 37 36
74 75 76 71 69 64 56 51 49 54 46 46 50 51 58 54 51 50 51 56 63 64 63 61 51 38 30 18 12 5 4 5 9 13 14 22 27 35 34 36 39 37 36
73 74 70 62 42 41 44 42 37 33 43 45 51 55 53 50 47 46 44 58 64 64 65 60 49 37 27 18 8 1 3 8 12 12 16 16 21 30 32 34 33 39 31
71 68 58 49 43 38 16 19 32 38 46 54 59 55 50 47 45 39 51 69 76 77 65 52 40 30 22 12 2 5 7 9 12 12 14 18 23 26 31 31 30 36 33
64 55 49 37 40 17 16 29 40 49 58 61 57 51 48 49 44 48 65 82 83 74 66 50 39 30 23 10 8 2 7 10 12 14 17 21 25 32 36 29 27 30 32
54 47 39 25 17 4 8 30 47 52 54 51 47 46 51 51 45 52 68 78 72 62 55 52 42 34 25 14 9 4 7 11 13 16 21 27 34 37 39 30 31 33 28
50 42 31 15 6 20 10 32 39 48 46 48 48 54 52 54 38 59 82 78 71 69 63 61 43 36 26 18 10 7 10 13 17 21 27 31 36 37 32 29 24 30 31
43 33 22 8 8 23 34 46 54 50 54 60 64 63 66 79 79 84 80 75 75 65 63 51 36 27 22 19 14 15 14 16 18 21 24 26 30 36 28 26 28 28 34
23 14 12 10 18 29 43 50 61 63 66 70 78 82 83 80 73 68 75 73 75 70 59 48 38 29 26 24 22 21 22 24 23 21 16 20 24 27 23 25 27 31 30
15 11 18 27 32 37 45 60 71 76 87 94 97 94 90 82 77 74 72 72 67 62 55 48 41 36 34 31 30 30 28 26 20 16 15 19 23 29 33 34 26 29 22
22 27 28 34 45 51 65 77 85 96 109 108 109 104 93 84 74 67 62 58 52 57 57 54 49 44 41 38 35 31 28 26 25 22 22 21 26 34 36 34 30 31 16
35 43 42 48 59 69 81 82 94 102 111 111 102 96 87 78 71 62 55 49 55 63 59 57 51 48 44 41 38 36 36 38 34 29 23 22 28 30 30 26 30 31 32
43 50 58 71 77 84 89 91 100 100 104 102 95 88 81 75 64 60 61 62 63 62 61 56 47 41 42 38 36 39 41 39 34 29 26 29 30 28 30 34 41 41 40
53 63 68 79 84 90 97 101 94 91 88 87 83 80 74 70 64 64 64 63 62 59 55 50 47 40 37 35 36 39 42 38 34 33 35 32 34 33 40 40 40 46 46
65 77 85 93 102 102 96 84 77 66 72 75 73 70 66 64 64 65 63 61 59 56 59 51 44 41 41 36 36 36 33 37 42 41 35 34 36 36 39 41 45 49 50
75 88 102 104 100 99 92 91 90 88 85 77 64 61 59 61 61 58 56 55 58 57 55 48 42 38 36 36 35 35 37 46 48 40 38 40 41 38 39 45 46 49 50
86 97 103 96 86 86 87 88 86 83 80 74 63 55 52 53 52 50 52 58 56 52 48 45 42 40 36 34 35 38 46 55 49 47 43 44 42 37 35 44 46 48 50
76 77 79 78 71 81 82 81 78 66 60 57 55 54 50 51 55 56 58 57 51 48 46 45 44 42 41 37 39 42 49 55 57 54 50 43 38 37 33 37 46 51 50
67 64 64 64 78 77 72 66 59 58 58 55 54 52 53 58 59 58 55 53 51 49 48 45 41 45 42 42 38 47 55 57 60 58 49 42 37 36 34 38 41 48 47
60 50 57 63 65 63 59 56 57 60 62 64 62 56 56 61 59 58 56 54 56 56 52 49 49 49 51 51 52 56 60 60 61 56 49 43 36 34 35 43 48 49 48
46 48 55 58 58 59 58 56 55 55 56 54 56 56 56 58 56 56 55 54 52 51 50 51 51 51 51 54 57 59 62 63 57 52 49 43 37 37 36 40 47 47 45
43 49 55 56 53 54 54 53 52 54 55 57 56 55 56 55 54 53 50 48 47 48 49 51 54 54 54 54 55 58 58 56 53 51 49 42 38 37 41 43 48 53 49
53 53 52 53 51 52 52 50 50 52 55 55 56 56 55 53 51 49 47 46 46 46 48 50 51 54 54 53 54 52 52 53 54 52 51 42 38 40 45 45 49 53 55
48 47 48 47 46 46 47 47 48 51 56 57 55 54 53 51 50 49 47 44 43 45 45 48 50 50 52 55 53 50 51 53 53 54 53 46 42 40 46 46 51 55 55
Wind_Direction_850mb
318 309 303 297 293 291 286 286 267 261 249 246 242 240 237 235 233 232 242 244 230 235 232 219 217 220 231 241 235 238 246 258 252 280 278 284 293 301 307 313 317 318 318
321 311 306 301 300 291 286 280 267 265 254 244 238 228 227 232 225 224 235 233 232 232 229 213 208 216 220 226 226 234 253 264 286 272 281 295 303 307 315 322 326 329 328
319 315 311 305 304 294 286 277 266 260 252 243 223 216 217 220 213 222 229 231 234 228 216 207 203 192 199 205 219 228 254 301 296 288 306 308 313 318 327 331 334 336 339
320 319 315 311 303 290 286 269 264 254 230 218 211 207 211 208 215 219 222 223 214 203 198 194 184 173 178 162 215 223 287 325 322 322 321 327 328 328 339 339 343 342 345
323 326 322 321 313 290 276 263 252 209 205 206 199 198 199 205 209 215 214 219 207 189 176 167 164 166 164 140 181 120 350 336 331 332 337 342 336 344 347 345 341 344 358
331 328 329 329 323 317 261 189 193 191 197 195 187 190 197 199 205 208 207 198 183 179 168 155 147 141 120 152 116 296 319 338 337 342 353 354 350 351 346 346 346 350 354
331 335 334 332 334 329 189 187 188 188 186 181 182 188 185 188 196 205 198 177 171 164 157 148 147 131 117 151 160 35 360 346 352 2 3 4 1 354 356 348 342 338 329
340 340 339 338 341 98 163 173 170 165 169 171 168 171 173 175 198 205 187 164 147 137 126 129 122 122 128 128 99 49 2 6 12 25 24 12 4 355 5 355 348 335 335
344 348 343 341 92 143 152 160 162 163 149 151 155 158 163 162 181 169 157 144 134 122 113 111 127 136 142 127 104 62 43 33 28 33 30 15 6 359 359 355 331 343 342
348 348 343 343 150 149 156 156 154 157 150 146 144 143 145 147 154 149 143 137 128 123 116 123 133 132 120 109 94 82 68 52 39 36 26 11 9 7 356 343 346 336 338
355 352 38 95 131 145 149 150 149 143 142 139 134 132 132 130 131 130 123 120 119 121 129 130 121 114 105 98 94 86 68 52 41 37 19 12 9 5 358 353 349 345 337
2 78 99 112 125 137 141 136 137 141 134 128 125 119 114 110 111 110 111 115 124 124 124 118 110 105 101 95 84 70 58 51 45 31 18 11 7 4 10 8 357 354 344
77 96 106 119 121 123 123 123 116 121 127 122 117 114 113 112 110 108 109 111 117 119 114 108 103 98 91 81 72 66 62 55 46 33 24 15 15 14 15 12 8 356 1
101 107 112 116 119 122 119 118 120 121 119 118 118 118 119 117 114 113 114 120 121 109 105 101 99 92 85 76 72 63 56 52 46 39 30 19 19 18 14 12 14 19 16
107 112 112 115 118 119 119 117 120 118 118 117 117 116 115 114 116 123 125 119 111 110 107 101 93 86 78 69 62 57 51 48 44 34 26 26 22 28 21 24 24 22 17
109 110 113 112 112 110 109 109 107 110 114 112 112 113 112 108 112 112 110 108 108 107 100 94 86 78 69 59 53 50 46 44 40 35 34 27 27 27 23 23 19 23 18
113 115 117 116 114 116 114 113 118 117 114 113 112 106 103 106 107 107 107 109 107 101 93 85 77 71 65 58 53 50 42 38 42 40 35 32 31 30 21 20 23 23 20
116 115 115 112 113 115 117 117 117 117 116 115 109 106 105 106 107 108 108 106 98 91 85 80 73 67 63 57 50 44 41 45 42 39 34 32 32 30 25 29 27 25 19
118 116 114 116 118 120 122 122 118 115 114 113 112 104 102 104 106 107 106 98 91 87 82 79 74 67 62 55 48 44 42 44 40 37 30 32 31 27 21 28 31 28 27
116 118 123 122 123 126 124 121 118 112 110 111 111 112 113 114 110 102 96 91 87 85 82 78 73 66 58 52 47 44 43 42 39 35 32 29 26 24 20 25 29 26 25
123 123 125 126 130 128 124 117 115 116 116 115 116 119 124 115 106 100 96 91 85 84 81 77 71 66 58 52 44 45 45 41 37 34 28 29 28 23 22 28 28 27 25
133 134 130 128 127 124 119 118 118 116 115 115 117 122 119 111 106 101 96 91 86 81 79 74 69 64 59 53 49 47 44 38 37 32 29 30 26 24 25 31 35 33 31
135 138 133 130 127 124 120 118 116 115 116 117 121 121 115 109 103 97 91 87 85 82 76 72 65 58 54 52 48 46 42 39 33 28 32 31 30 38 29 32 36 33 39
142 142 136 132 129 126 123 121 120 118 118 119 120 117 110 105 101 96 94 91 86 80 74 67 62 57 53 50 47 44 41 39 36 35 37 33 38 44 44 46 45 42 52
141 142 138 134 133 128 125 121 120 119 119 119 117 115 111 106 101 97 93 87 82 78 73 67 59 56 53 51 48 45 41 40 39 40 42 40 46 55 54 50 50 49 55
145 144 141 138 134 131 128 125 124 124 123 121 118 113 108 103 98 94 90 87 83 76 71 67 62 55 53 51 47 45 43 42 42 43 42 44 50 63 62 58 58 56 59